,,Stat5,,Stat1,,Stat2,,Stat3,,Stat4,,Wind1,,Wind1,
time,status,PA1M_AVG,status,PR1M_SUM,status,RH1M_AVG,status,SR1M_AVG,status,TA1M_AVG,status,W1dAve1m,status,W1sAve1m,
2003-09-21, 00:00:00,VALID,920.918,VALID,0,VALID,92.096,VALID,-0.0509425,VALID,19.9683,VALID,9,VALID,0,
2003-09-21, 00:01:00,VALID,920.925,VALID,0,VALID,92.0222,VALID,-0.0849042,VALID,19.9484,VALID,9,VALID,0,
2003-09-21, 00:02:00,VALID,920.929,VALID,0,VALID,91.7514,VALID,-0.0169808,VALID,19.9387,VALID,9,VALID,0,
2003-09-21, 00:03:00,VALID,920.936,VALID,0,VALID,91.6509,VALID,-0.0679233,VALID,19.9355,VALID,9,VALID,0,
2003-09-21, 00:04:00,VALID,920.917,VALID,0,VALID,91.7272,VALID,-0.0849042,VALID,19.9484,VALID,9,VALID,0.0750411,
2003-09-21, 00:05:00,VALID,920.903,VALID,0,VALID,91.8035,VALID,-0.0509425,VALID,19.9352,VALID,9,VALID,0.00379464,
2003-09-21, 00:06:00,VALID,920.902,VALID,0,VALID,92.0375,VALID,-0.0679233,VALID,19.9255,VALID,9,VALID,0.0438368,
2003-09-21, 00:07:00,VALID,920.894,VALID,0,VALID,92.1888,VALID,-0.0679233,VALID,19.8967,VALID,9,VALID,0.11951,
2003-09-21, 00:08:00,VALID,920.863,VALID,0,VALID,92.4495,VALID,-0.0679233,VALID,19.8709,VALID,9,VALID,0.238616,
2003-09-21, 00:09:00,VALID,920.862,VALID,0,VALID,92.6555,VALID,-0.0849042,VALID,19.8485,VALID,9,VALID,0,
2003-09-21, 00:10:00,VALID,920.836,VALID,0,VALID,92.719,VALID,-0.0679233,VALID,19.7969,VALID,9,VALID,0.00102796,
2003-09-21, 00:11:00,VALID,920.815,VALID,0,VALID,92.864,VALID,-0.0169808,VALID,19.7576,VALID,9,VALID,0,
2003-09-21, 00:12:00,VALID,920.784,VALID,0,VALID,92.995,VALID,-0.0339617,VALID,19.7382,VALID,9,VALID,0,
2003-09-21, 00:13:00,VALID,920.762,VALID,0,VALID,93.0319,VALID,0,VALID,19.6886,VALID,9,VALID,0.253289,
2003-09-21, 00:14:00,VALID,920.728,VALID,0,VALID,93.2697,VALID,0,VALID,19.6302,VALID,9,VALID,0.247321,
2003-09-21, 00:15:00,VALID,920.702,VALID,0,VALID,93.5799,VALID,0.0679233,VALID,19.5755,VALID,9,VALID,0.162543,
2003-09-21, 00:16:00,VALID,920.669,VALID,0,VALID,93.73,VALID,0.0509425,VALID,19.5497,VALID,9,VALID,0,
2003-09-21, 00:17:00,VALID,920.658,VALID,0,VALID,93.819,VALID,0.0169808,VALID,19.537,VALID,9,VALID,0,
2003-09-21, 00:18:00,VALID,920.629,VALID,0,VALID,93.8393,VALID,0.0679233,VALID,19.5045,VALID,9,VALID,0,
2003-09-21, 00:19:00,VALID,920.58,VALID,0,VALID,93.9919,VALID,0.0849042,VALID,19.4623,VALID,9,VALID,0,
2003-09-21, 00:20:00,VALID,920.558,VALID,0,VALID,94.1992,VALID,0.0169808,VALID,19.431,VALID,9,VALID,0.30447,
2003-09-21, 00:21:00,VALID,920.521,VALID,0,VALID,94.3556,VALID,0.0509425,VALID,19.3883,VALID,9,VALID,0.139936,
2003-09-21, 00:22:00,VALID,920.498,VALID,0,VALID,94.3556,VALID,0.0679233,VALID,19.3627,VALID,9,VALID,0,
2003-09-21, 00:23:00,VALID,920.494,VALID,0,VALID,94.3531,VALID,0.0339617,VALID,19.3237,VALID,9,VALID,0,
2003-09-21, 00:24:00,VALID,920.483,VALID,0,VALID,94.5209,VALID,0.0339617,VALID,19.2979,VALID,9,VALID,0,
2003-09-21, 00:25:00,VALID,920.473,VALID,0,VALID,94.5705,VALID,0,VALID,19.2988,VALID,9,VALID,0,
2003-09-21, 00:26:00,VALID,920.468,VALID,0,VALID,94.629,VALID,-0.0849042,VALID,19.2802,VALID,9,VALID,0.341964,
2003-09-21, 00:27:00,VALID,920.454,VALID,0,VALID,94.704,VALID,0,VALID,19.2663,VALID,12,VALID,0.379136,
2003-09-21, 00:28:00,VALID,920.454,VALID,0,VALID,94.7523,VALID,0.0169808,VALID,19.2857,VALID,20,VALID,0.488692,
2003-09-21, 00:29:00,VALID,920.433,VALID,0,VALID,94.6773,VALID,-0.0169808,VALID,19.3113,VALID,20,VALID,0.396484,
2003-09-21, 00:30:00,VALID,920.418,VALID,0,VALID,94.451,VALID,0,VALID,19.3468,VALID,20,VALID,0.253676,
2003-09-21, 00:31:00,VALID,920.408,VALID,0,VALID,94.1547,VALID,0,VALID,19.3763,VALID,20,VALID,0.358758,
2003-09-21, 00:32:00,VALID,920.37,VALID,0,VALID,94.2361,VALID,0,VALID,19.3985,VALID,20,VALID,0.139286,
2003-09-21, 00:33:00,VALID,920.323,VALID,0,VALID,94.3429,VALID,0,VALID,19.4402,VALID,20,VALID,0.0507813,
2003-09-21, 00:34:00,VALID,920.287,VALID,0,VALID,94.2119,VALID,0,VALID,19.4988,VALID,20,VALID,0.0660895,
2003-09-21, 00:35:00,VALID,920.264,VALID,0,VALID,93.9741,VALID,-0.0169808,VALID,19.5636,VALID,20,VALID,0.0180804,
2003-09-21, 00:36:00,VALID,920.246,VALID,0,VALID,93.7579,VALID,0,VALID,19.6153,VALID,20,VALID,0,
2003-09-21, 00:37:00,VALID,920.218,VALID,0,VALID,93.4426,VALID,0.0169808,VALID,19.6471,VALID,20,VALID,0.0298109,
2003-09-21, 00:38:00,VALID,920.199,VALID,0,VALID,93.2595,VALID,0,VALID,19.6732,VALID,20,VALID,0.0523003,
2003-09-21, 00:39:00,VALID,920.2,VALID,0,VALID,92.8856,VALID,0.0169808,VALID,19.6665,VALID,20,VALID,0,
2003-09-21, 00:40:00,VALID,920.192,VALID,0,VALID,92.92,VALID,0,VALID,19.6533,VALID,20,VALID,0,
2003-09-21, 00:41:00,VALID,920.198,VALID,0,VALID,93.0624,VALID,0.0169808,VALID,19.6476,VALID,20,VALID,0,
2003-09-21, 00:42:00,VALID,920.198,VALID,0,VALID,93.2213,VALID,0,VALID,19.615,VALID,20,VALID,0,
2003-09-21, 00:43:00,VALID,920.214,VALID,0,VALID,93.5469,VALID,0,VALID,19.586,VALID,20,VALID,0,
2003-09-21, 00:44:00,VALID,920.211,VALID,0,VALID,93.6944,VALID,0.0169808,VALID,19.5572,VALID,57,VALID,0.285268,
2003-09-21, 00:45:00,VALID,920.199,VALID,0,VALID,93.8851,VALID,0,VALID,19.5276,VALID,110,VALID,0.377757,
2003-09-21, 00:46:00,VALID,920.188,VALID,0,VALID,94.0746,VALID,0,VALID,19.5018,VALID,110,VALID,0.245888,
2003-09-21, 00:47:00,VALID,920.183,VALID,0,VALID,94.2221,VALID,0,VALID,19.4737,VALID,110,VALID,0.263889,
2003-09-21, 00:48:00,VALID,920.166,VALID,0,VALID,94.5069,VALID,0,VALID,19.4605,VALID,110,VALID,0.113971,
2003-09-21, 00:49:00,VALID,920.145,VALID,0,VALID,94.5413,VALID,-0.0169808,VALID,19.4734,VALID,110,VALID,0.112664,
2003-09-21, 00:50:00,VALID,920.122,VALID,0,VALID,94.5145,VALID,0,VALID,19.4697,VALID,110,VALID,0.0698661,
2003-09-21, 00:51:00,VALID,920.105,VALID,0,VALID,94.4599,VALID,-0.0169808,VALID,19.4898,VALID,110,VALID,0,
2003-09-21, 00:52:00,VALID,920.08,VALID,0,VALID,94.381,VALID,0,VALID,19.4993,VALID,110,VALID,0,
2003-09-21, 00:53:00,VALID,920.069,VALID,0,VALID,94.1432,VALID,0,VALID,19.4958,VALID,110,VALID,0,
2003-09-21, 00:54:00,VALID,920.045,VALID,0,VALID,94.2768,VALID,0,VALID,19.5028,VALID,110,VALID,0,
2003-09-21, 00:55:00,VALID,920.024,VALID,0,VALID,94.0441,VALID,0.0169808,VALID,19.499,VALID,110,VALID,0,
2003-09-21, 00:56:00,VALID,920.017,VALID,0,VALID,94.1267,VALID,0,VALID,19.4859,VALID,110,VALID,0,
2003-09-21, 00:57:00,VALID,920.021,VALID,0,VALID,94.1483,VALID,0,VALID,19.4705,VALID,110,VALID,0,
2003-09-21, 00:58:00,VALID,920.025,VALID,0,VALID,94.0631,VALID,0,VALID,19.4374,VALID,110,VALID,0,
2003-09-21, 00:59:00,VALID,920.022,VALID,0,VALID,94.175,VALID,0,VALID,19.461,VALID,110,VALID,0,
2003-09-21, 01:00:00,VALID,920.046,VALID,0,VALID,94.0797,VALID,-0.0169808,VALID,19.4444,VALID,110,VALID,0.0523003,
2003-09-21, 01:01:00,VALID,920.043,VALID,0,VALID,93.9792,VALID,0,VALID,19.386,VALID,110,VALID,0.353463,
2003-09-21, 01:02:00,VALID,920.05,VALID,0,VALID,94.1649,VALID,0,VALID,19.3475,VALID,110,VALID,0.297768,
2003-09-21, 01:03:00,VALID,920.053,VALID,0,VALID,94.2373,VALID,0,VALID,19.303,VALID,110,VALID,0.242188,
2003-09-21, 01:04:00,VALID,920.045,VALID,0,VALID,94.4802,VALID,0,VALID,19.2415,VALID,107,VALID,0.288651,
2003-09-21, 01:05:00,VALID,920.04,VALID,0,VALID,94.6824,VALID,-0.0169808,VALID,19.2059,VALID,106,VALID,0.231337,
2003-09-21, 01:06:00,VALID,920.042,VALID,0,VALID,94.6455,VALID,0,VALID,19.1476,VALID,106,VALID,0.285616,
2003-09-21, 01:07:00,VALID,920.048,VALID,0,VALID,94.7778,VALID,-0.0339617,VALID,19.0736,VALID,78,VALID,0.414679,
2003-09-21, 01:08:00,VALID,920.05,VALID,0,VALID,95.0194,VALID,0,VALID,19.0154,VALID,28,VALID,0.503795,
2003-09-21, 01:09:00,VALID,920.051,VALID,0,VALID,95.2165,VALID,-0.0169808,VALID,18.9573,VALID,14,VALID,0.444444,
2003-09-21, 01:10:00,VALID,920.046,VALID,0,VALID,95.6208,VALID,-0.0169808,VALID,18.9218,VALID,14,VALID,0.725507,
2003-09-21, 01:11:00,VALID,920.042,VALID,0,VALID,96.1676,VALID,-0.0339617,VALID,18.9407,VALID,14,VALID,0.838616,
2003-09-21, 01:12:00,VALID,920.037,VALID,0,VALID,96.4131,VALID,0,VALID,18.9794,VALID,19,VALID,0.747013,
2003-09-21, 01:13:00,VALID,920.036,VALID,0,VALID,96.3202,VALID,0,VALID,19.0055,VALID,16,VALID,0.721423,
2003-09-21, 01:14:00,VALID,920.033,VALID,0,VALID,96.3024,VALID,0,VALID,19.0115,VALID,11,VALID,0.760417,
2003-09-21, 01:15:00,VALID,920.029,VALID,0,VALID,96.1893,VALID,-0.0169808,VALID,19.0316,VALID,10,VALID,0.825138,
2003-09-21, 01:16:00,VALID,920.021,VALID,0,VALID,96.2681,VALID,0,VALID,19.0577,VALID,358,VALID,0.698191,
2003-09-21, 01:17:00,VALID,919.989,VALID,0,VALID,96.1943,VALID,-0.0169808,VALID,19.0832,VALID,351,VALID,0.508482,
2003-09-21, 01:18:00,VALID,919.981,VALID,0,VALID,95.9489,VALID,0,VALID,19.0924,VALID,352,VALID,0.102648,
2003-09-21, 01:19:00,VALID,919.953,VALID,0,VALID,96.1422,VALID,-0.0169808,VALID,19.1351,VALID,352,VALID,0,
2003-09-21, 01:20:00,VALID,919.935,VALID,0,VALID,96.202,VALID,-0.0339617,VALID,19.1545,VALID,352,VALID,0.0674107,
2003-09-21, 01:21:00,VALID,919.928,VALID,0,VALID,96.6165,VALID,-0.0169808,VALID,19.1928,VALID,309,VALID,0.473346,
2003-09-21, 01:22:00,VALID,919.922,VALID,0,VALID,96.8047,VALID,-0.0339617,VALID,19.2479,VALID,288,VALID,0.174753,
2003-09-21, 01:23:00,VALID,919.93,VALID,0,VALID,96.7691,VALID,-0.0169808,VALID,19.2832,VALID,288,VALID,0.374349,
2003-09-21, 01:24:00,VALID,919.925,VALID,0,VALID,96.6954,VALID,-0.0339617,VALID,19.306,VALID,288,VALID,0.0323989,
2003-09-21, 01:25:00,VALID,919.898,VALID,0,VALID,96.2643,VALID,-0.0169808,VALID,19.3095,VALID,288,VALID,0.0127467,
2003-09-21, 01:26:00,VALID,919.885,VALID,0,VALID,95.4835,VALID,0.0169808,VALID,19.2511,VALID,288,VALID,0.185491,
2003-09-21, 01:27:00,VALID,919.87,VALID,0,VALID,95.2915,VALID,-0.0339617,VALID,19.1997,VALID,288,VALID,0.285373,
2003-09-21, 01:28:00,VALID,919.872,VALID,0,VALID,95.4377,VALID,-0.0339617,VALID,19.1866,VALID,288,VALID,0.200591,
2003-09-21, 01:29:00,VALID,919.864,VALID,0,VALID,95.5598,VALID,-0.0339617,VALID,19.1833,VALID,288,VALID,0.0767857,
2003-09-21, 01:30:00,VALID,919.86,VALID,0,VALID,95.776,VALID,-0.0679233,VALID,19.1868,VALID,323,VALID,0.206801,
2003-09-21, 01:31:00,VALID,919.848,VALID,0,VALID,95.7607,VALID,0,VALID,19.1704,VALID,333,VALID,0.0160362,
2003-09-21, 01:32:00,VALID,919.843,VALID,0,VALID,95.8803,VALID,-0.0169808,VALID,19.1672,VALID,333,VALID,0.169488,
2003-09-21, 01:33:00,VALID,919.823,VALID,0,VALID,95.9871,VALID,-0.0339617,VALID,19.1908,VALID,58,VALID,0.429688,
2003-09-21, 01:34:00,VALID,919.801,VALID,0,VALID,96.1384,VALID,-0.0339617,VALID,19.1803,VALID,75,VALID,0.697368,
2003-09-21, 01:35:00,VALID,919.781,VALID,0,VALID,96.0812,VALID,-0.0849042,VALID,19.1868,VALID,69,VALID,0.855357,
2003-09-21, 01:36:00,VALID,919.764,VALID,0,VALID,95.9578,VALID,-0.0509425,VALID,19.2166,VALID,69,VALID,0.919705,
2003-09-21, 01:37:00,VALID,919.759,VALID,0,VALID,95.865,VALID,-0.0849042,VALID,19.2193,VALID,68,VALID,0.827069,
2003-09-21, 01:38:00,VALID,919.736,VALID,0,VALID,95.8307,VALID,-0.0679233,VALID,19.2253,VALID,68,VALID,0.82567,
2003-09-21, 01:39:00,VALID,919.733,VALID,0,VALID,95.4505,VALID,-0.0169808,VALID,19.2256,VALID,67,VALID,0.664752,
2003-09-21, 01:40:00,VALID,919.708,VALID,0,VALID,95.3042,VALID,-0.0509425,VALID,19.1935,VALID,67,VALID,0.68051,
2003-09-21, 01:41:00,VALID,919.697,VALID,0,VALID,95.2648,VALID,-0.0679233,VALID,19.1711,VALID,67,VALID,0.622179,
2003-09-21, 01:42:00,VALID,919.678,VALID,0,VALID,95.5547,VALID,0,VALID,19.1513,VALID,63,VALID,0.514246,
2003-09-21, 01:43:00,VALID,919.665,VALID,0,VALID,95.8167,VALID,-0.0509425,VALID,19.1548,VALID,55,VALID,0.606908,
2003-09-21, 01:44:00,VALID,919.647,VALID,0,VALID,95.6565,VALID,-0.0339617,VALID,19.1647,VALID,61,VALID,0.70692,
2003-09-21, 01:45:00,VALID,919.625,VALID,0,VALID,95.4555,VALID,-0.0509425,VALID,19.1707,VALID,63,VALID,0.596354,
2003-09-21, 01:46:00,VALID,919.598,VALID,0,VALID,95.191,VALID,-0.0509425,VALID,19.2032,VALID,64,VALID,0.476351,
2003-09-21, 01:47:00,VALID,919.59,VALID,0,VALID,94.9685,VALID,-0.0849042,VALID,19.2293,VALID,69,VALID,0.3,
2003-09-21, 01:48:00,VALID,919.579,VALID,0,VALID,94.793,VALID,-0.0509425,VALID,19.2613,VALID,69,VALID,0.326746,
2003-09-21, 01:49:00,VALID,919.581,VALID,0,VALID,94.6023,VALID,-0.0169808,VALID,19.2874,VALID,69,VALID,0.251234,
2003-09-21, 01:50:00,VALID,919.559,VALID,0,VALID,94.5082,VALID,-0.0679233,VALID,19.2963,VALID,69,VALID,0.354384,
2003-09-21, 01:51:00,VALID,919.54,VALID,0,VALID,94.4878,VALID,-0.0509425,VALID,19.3065,VALID,73,VALID,0.360524,
2003-09-21, 01:52:00,VALID,919.536,VALID,0,VALID,94.4853,VALID,-0.0849042,VALID,19.313,VALID,73,VALID,0.241776,
2003-09-21, 01:53:00,VALID,919.536,VALID,0,VALID,94.5769,VALID,-0.0679233,VALID,19.31,VALID,88,VALID,0.384375,
2003-09-21, 01:54:00,VALID,919.539,VALID,0,VALID,94.793,VALID,-0.0679233,VALID,19.2968,VALID,141,VALID,0.319661,
2003-09-21, 01:55:00,VALID,919.549,VALID,0,VALID,94.9113,VALID,-0.0169808,VALID,19.2842,VALID,141,VALID,0.377534,
2003-09-21, 01:56:00,VALID,919.531,VALID,0,VALID,95.0181,VALID,-0.0679233,VALID,19.2514,VALID,148,VALID,0.285714,
2003-09-21, 01:57:00,VALID,919.539,VALID,0,VALID,95.205,VALID,-0.0339617,VALID,19.2415,VALID,178,VALID,0.714154,
2003-09-21, 01:58:00,VALID,919.533,VALID,0,VALID,95.3996,VALID,0.0509425,VALID,19.2211,VALID,178,VALID,0.673109,
2003-09-21, 01:59:00,VALID,919.53,VALID,0,VALID,95.5535,VALID,0.0509425,VALID,19.195,VALID,178,VALID,0.603082,
2003-09-21, 02:00:00,VALID,919.522,VALID,0,VALID,95.7595,VALID,0.0509425,VALID,19.1724,VALID,178,VALID,0.435662,
2003-09-21, 02:01:00,VALID,919.521,VALID,0,VALID,95.9082,VALID,0.0339617,VALID,19.163,VALID,178,VALID,0.44634,
2003-09-21, 02:02:00,VALID,919.52,VALID,0,VALID,95.9502,VALID,0.0339617,VALID,19.1533,VALID,178,VALID,0.296875,
2003-09-21, 02:03:00,VALID,919.523,VALID,0,VALID,96.0888,VALID,0.0509425,VALID,19.1565,VALID,178,VALID,0.391059,
2003-09-21, 02:04:00,VALID,919.507,VALID,0,VALID,96.1664,VALID,0.101885,VALID,19.1757,VALID,180,VALID,0.561867,
2003-09-21, 02:05:00,VALID,919.494,VALID,0,VALID,96.1066,VALID,0.0679233,VALID,19.1727,VALID,183,VALID,0.61183,
2003-09-21, 02:06:00,VALID,919.485,VALID,0,VALID,96.1002,VALID,0.0339617,VALID,19.1791,VALID,193,VALID,0.319393,
2003-09-21, 02:07:00,VALID,919.495,VALID,0,VALID,96.0774,VALID,0.0509425,VALID,19.208,VALID,204,VALID,0.209293,
2003-09-21, 02:08:00,VALID,919.515,VALID,0,VALID,95.9337,VALID,0.0169808,VALID,19.276,VALID,239,VALID,0.197049,
2003-09-21, 02:09:00,VALID,919.519,VALID,0,VALID,95.584,VALID,0.0169808,VALID,19.3085,VALID,239,VALID,0,
2003-09-21, 02:10:00,VALID,919.516,VALID,0,VALID,95.397,VALID,0.0509425,VALID,19.3406,VALID,239,VALID,0,
2003-09-21, 02:11:00,VALID,919.499,VALID,0,VALID,95.1771,VALID,0.0849042,VALID,19.3369,VALID,239,VALID,0,
2003-09-21, 02:12:00,VALID,919.493,VALID,0,VALID,95.0613,VALID,-0.0339617,VALID,19.345,VALID,239,VALID,0,
2003-09-21, 02:13:00,VALID,919.481,VALID,0,VALID,95.0486,VALID,-0.152827,VALID,19.343,VALID,239,VALID,0,
2003-09-21, 02:14:00,VALID,919.48,VALID,0,VALID,95.0677,VALID,-0.101885,VALID,19.3527,VALID,239,VALID,0.0926339,
2003-09-21, 02:15:00,VALID,919.484,VALID,0,VALID,94.8452,VALID,-0.135847,VALID,19.3497,VALID,239,VALID,0.00344669,
2003-09-21, 02:16:00,VALID,919.467,VALID,0,VALID,94.8846,VALID,-0.118866,VALID,19.3174,VALID,239,VALID,0.099301,
2003-09-21, 02:17:00,VALID,919.456,VALID,0,VALID,95.0626,VALID,-0.135847,VALID,19.2978,VALID,239,VALID,0.0184462,
2003-09-21, 02:18:00,VALID,919.421,VALID,0,VALID,94.9774,VALID,-0.135847,VALID,19.2623,VALID,239,VALID,0.0011489,
2003-09-21, 02:19:00,VALID,919.383,VALID,0,VALID,94.9939,VALID,-0.118866,VALID,19.2461,VALID,239,VALID,0,
2003-09-21, 02:20:00,VALID,919.345,VALID,0,VALID,95.1313,VALID,-0.135847,VALID,19.227,VALID,239,VALID,0,
2003-09-21, 02:21:00,VALID,919.321,VALID,0,VALID,95.205,VALID,-0.135847,VALID,19.2141,VALID,239,VALID,0,
2003-09-21, 02:22:00,VALID,919.301,VALID,0,VALID,95.2495,VALID,-0.118866,VALID,19.1975,VALID,239,VALID,0.262035,
2003-09-21, 02:23:00,VALID,919.281,VALID,0,VALID,95.2254,VALID,-0.169808,VALID,19.1751,VALID,239,VALID,0.0372768,
2003-09-21, 02:24:00,VALID,919.247,VALID,0,VALID,95.3182,VALID,-0.152827,VALID,19.1458,VALID,239,VALID,0.0011489,
2003-09-21, 02:25:00,VALID,919.224,VALID,0,VALID,95.5407,VALID,-0.152827,VALID,19.1331,VALID,239,VALID,0,
2003-09-21, 02:26:00,VALID,919.216,VALID,0,VALID,95.6654,VALID,-0.135847,VALID,19.1204,VALID,277,VALID,0.305122,
2003-09-21, 02:27:00,VALID,919.206,VALID,0,VALID,95.5293,VALID,-0.0169808,VALID,19.0934,VALID,37,VALID,0.730928,
2003-09-21, 02:28:00,VALID,919.191,VALID,0,VALID,95.4543,VALID,0.0679233,VALID,19.0138,VALID,37,VALID,0.585526,
2003-09-21, 02:29:00,VALID,919.183,VALID,0,VALID,95.6793,VALID,0.0679233,VALID,18.9658,VALID,37,VALID,0.492634,
2003-09-21, 02:30:00,VALID,919.179,VALID,0,VALID,95.8345,VALID,0.0849042,VALID,18.9209,VALID,37,VALID,0.313151,
2003-09-21, 02:31:00,VALID,919.167,VALID,0,VALID,96.1028,VALID,0.0849042,VALID,18.8916,VALID,37,VALID,0.0675676,
2003-09-21, 02:32:00,VALID,919.161,VALID,0,VALID,96.3406,VALID,0.0169808,VALID,18.8883,VALID,37,VALID,0,
2003-09-21, 02:33:00,VALID,919.156,VALID,0,VALID,96.4003,VALID,0.0509425,VALID,18.8819,VALID,37,VALID,0,
2003-09-21, 02:34:00,VALID,919.135,VALID,0,VALID,96.5606,VALID,0.101885,VALID,18.9079,VALID,37,VALID,0,
2003-09-21, 02:35:00,VALID,919.123,VALID,0,VALID,96.6954,VALID,0.0339617,VALID,18.9077,VALID,37,VALID,0.0763889,
2003-09-21, 02:36:00,VALID,919.108,VALID,0,VALID,96.7589,VALID,0.0679233,VALID,18.9206,VALID,46,VALID,0.461167,
2003-09-21, 02:37:00,VALID,919.103,VALID,0,VALID,96.8467,VALID,0.0509425,VALID,18.9273,VALID,111,VALID,0.544202,
2003-09-21, 02:38:00,VALID,919.094,VALID,0,VALID,96.8568,VALID,0.0509425,VALID,18.9499,VALID,116,VALID,0.462054,
2003-09-21, 02:39:00,VALID,919.078,VALID,0,VALID,96.895,VALID,0.0849042,VALID,18.9557,VALID,119,VALID,0.425781,
2003-09-21, 02:40:00,VALID,919.065,VALID,0,VALID,96.9115,VALID,0.0849042,VALID,18.9728,VALID,119,VALID,0.489865,
2003-09-21, 02:41:00,VALID,919.035,VALID,0,VALID,96.8734,VALID,0.0679233,VALID,18.9693,VALID,124,VALID,0.406027,
2003-09-21, 02:42:00,VALID,919.011,VALID,0,VALID,96.8963,VALID,-0.0339617,VALID,18.9603,VALID,143,VALID,0.442785,
2003-09-21, 02:43:00,VALID,919.002,VALID,0,VALID,96.9064,VALID,-0.0169808,VALID,18.9712,VALID,137,VALID,0.375822,
2003-09-21, 02:44:00,VALID,918.985,VALID,0,VALID,96.8505,VALID,-0.0509425,VALID,18.9606,VALID,133,VALID,0.130859,
2003-09-21, 02:45:00,VALID,918.986,VALID,0,VALID,96.8759,VALID,-0.0509425,VALID,18.9643,VALID,133,VALID,0.495864,
2003-09-21, 02:46:00,VALID,918.969,VALID,0,VALID,96.8263,VALID,-0.0169808,VALID,18.9677,VALID,133,VALID,0.238487,
2003-09-21, 02:47:00,VALID,918.965,VALID,0,VALID,96.7157,VALID,-0.0339617,VALID,18.929,VALID,133,VALID,0.110714,
2003-09-21, 02:48:00,VALID,918.982,VALID,0,VALID,96.8098,VALID,-0.0339617,VALID,18.89,VALID,133,VALID,0.0115017,
2003-09-21, 02:49:00,VALID,918.982,VALID,0,VALID,96.9942,VALID,-0.0169808,VALID,18.8734,VALID,133,VALID,0.0656672,
2003-09-21, 02:50:00,VALID,919.01,VALID,0,VALID,96.8454,VALID,0,VALID,18.857,VALID,133,VALID,0,
2003-09-21, 02:51:00,VALID,919.031,VALID,0,VALID,96.8746,VALID,-0.0339617,VALID,18.8381,VALID,133,VALID,0.000919118,
2003-09-21, 02:52:00,VALID,919.039,VALID,0,VALID,96.839,VALID,-0.0339617,VALID,18.8224,VALID,133,VALID,0,
2003-09-21, 02:53:00,VALID,919.049,VALID,0,VALID,97.0959,VALID,-0.0339617,VALID,18.8093,VALID,133,VALID,0.129557,
2003-09-21, 02:54:00,VALID,919.064,VALID,0,VALID,97.3197,VALID,-0.0169808,VALID,18.8254,VALID,133,VALID,0.212546,
2003-09-21, 02:55:00,VALID,919.075,VALID,0,VALID,97.4494,VALID,-0.0339617,VALID,18.8187,VALID,133,VALID,0.340461,
2003-09-21, 02:56:00,VALID,919.098,VALID,0,VALID,97.5079,VALID,-0.0169808,VALID,18.8222,VALID,133,VALID,0.311384,
2003-09-21, 02:57:00,VALID,919.098,VALID,0,VALID,97.5333,VALID,-0.0339617,VALID,18.8093,VALID,133,VALID,0.344184,
2003-09-21, 02:58:00,VALID,919.118,VALID,0,VALID,97.5422,VALID,-0.0169808,VALID,18.816,VALID,133,VALID,0.397171,
2003-09-21, 02:59:00,VALID,919.145,VALID,0,VALID,97.5779,VALID,0,VALID,18.8061,VALID,133,VALID,0.277679,
2003-09-21, 03:00:00,VALID,919.151,VALID,0,VALID,97.6541,VALID,-0.0509425,VALID,18.8194,VALID,133,VALID,0.419807,
2003-09-21, 03:01:00,VALID,919.161,VALID,0,VALID,97.6758,VALID,-0.0849042,VALID,18.8093,VALID,133,VALID,0.225329,
2003-09-21, 03:02:00,VALID,919.167,VALID,0,VALID,97.7088,VALID,-0.0339617,VALID,18.8128,VALID,133,VALID,0.398438,
2003-09-21, 03:03:00,VALID,919.152,VALID,0,VALID,97.8436,VALID,-0.0339617,VALID,18.8192,VALID,137,VALID,0.604779,
2003-09-21, 03:04:00,VALID,919.149,VALID,0,VALID,97.7241,VALID,-0.0339617,VALID,18.8291,VALID,152,VALID,0.69449,
2003-09-21, 03:05:00,VALID,919.156,VALID,0,VALID,97.7393,VALID,-0.0679233,VALID,18.8098,VALID,163,VALID,0.768304,
2003-09-21, 03:06:00,VALID,919.165,VALID,0,VALID,97.8347,VALID,-0.0849042,VALID,18.816,VALID,169,VALID,0.997396,
2003-09-21, 03:07:00,VALID,919.188,VALID,0,VALID,97.7228,VALID,-0.0849042,VALID,18.8321,VALID,170,VALID,0.729307,
2003-09-21, 03:08:00,VALID,919.198,VALID,0,VALID,97.6402,VALID,-0.0679233,VALID,18.8321,VALID,170,VALID,0.666071,
2003-09-21, 03:09:00,VALID,919.221,VALID,0,VALID,97.5766,VALID,-0.0509425,VALID,18.8227,VALID,166,VALID,0.465533,
2003-09-21, 03:10:00,VALID,919.232,VALID,0,VALID,97.574,VALID,-0.0679233,VALID,18.8289,VALID,162,VALID,0.459704,
2003-09-21, 03:11:00,VALID,919.237,VALID,0,VALID,97.5918,VALID,-0.0169808,VALID,18.8354,VALID,149,VALID,0.647569,
2003-09-21, 03:12:00,VALID,919.251,VALID,0,VALID,97.5804,VALID,-0.0339617,VALID,18.8483,VALID,142,VALID,0.599494,
2003-09-21, 03:13:00,VALID,919.268,VALID,0,VALID,97.6007,VALID,-0.0509425,VALID,18.8547,VALID,144,VALID,0.634868,
2003-09-21, 03:14:00,VALID,919.267,VALID,0,VALID,97.5956,VALID,0,VALID,18.8674,VALID,152,VALID,0.492411,
2003-09-21, 03:15:00,VALID,919.276,VALID,0,VALID,97.6541,VALID,-0.0169808,VALID,18.8806,VALID,160,VALID,0.478733,
2003-09-21, 03:16:00,VALID,919.296,VALID,0,VALID,97.6719,VALID,-0.0169808,VALID,18.9064,VALID,172,VALID,0.527238,
2003-09-21, 03:17:00,VALID,919.298,VALID,0,VALID,97.6669,VALID,-0.0339617,VALID,18.9292,VALID,182,VALID,0.413616,
2003-09-21, 03:18:00,VALID,919.301,VALID,0,VALID,97.6046,VALID,-0.0339617,VALID,18.965,VALID,182,VALID,0.362822,
2003-09-21, 03:19:00,VALID,919.305,VALID,0,VALID,97.5295,VALID,-0.0339617,VALID,18.9906,VALID,181,VALID,0.437294,
2003-09-21, 03:20:00,VALID,919.289,VALID,0,VALID,97.4176,VALID,-0.0169808,VALID,19.0159,VALID,196,VALID,0.517578,
2003-09-21, 03:21:00,VALID,919.287,VALID,0,VALID,97.251,VALID,-0.0339617,VALID,19.0392,VALID,178,VALID,0.647059,
2003-09-21, 03:22:00,VALID,919.278,VALID,0,VALID,97.1061,VALID,-0.0849042,VALID,19.0648,VALID,160,VALID,0.537623,
2003-09-21, 03:23:00,VALID,919.269,VALID,0,VALID,96.9726,VALID,-0.0169808,VALID,19.0807,VALID,162,VALID,0.610268,
2003-09-21, 03:24:00,VALID,919.269,VALID,0,VALID,96.9382,VALID,-0.0169808,VALID,19.1003,VALID,160,VALID,0.526693,
2003-09-21, 03:25:00,VALID,919.249,VALID,0,VALID,96.923,VALID,-0.0339617,VALID,19.1031,VALID,164,VALID,0.592905,
2003-09-21, 03:26:00,VALID,919.245,VALID,0,VALID,96.9128,VALID,-0.0339617,VALID,19.1195,VALID,159,VALID,0.460714,
2003-09-21, 03:27:00,VALID,919.233,VALID,0,VALID,96.8543,VALID,-0.0339617,VALID,19.1259,VALID,150,VALID,0.415671,
2003-09-21, 03:28:00,VALID,919.228,VALID,0,VALID,96.7856,VALID,-0.0339617,VALID,19.1262,VALID,150,VALID,0.328947,
2003-09-21, 03:29:00,VALID,919.222,VALID,0,VALID,96.7449,VALID,-0.0509425,VALID,19.1458,VALID,150,VALID,0.329861,
2003-09-21, 03:30:00,VALID,919.223,VALID,0,VALID,96.7348,VALID,-0.0509425,VALID,19.1294,VALID,150,VALID,0.431526,
2003-09-21, 03:31:00,VALID,919.229,VALID,0,VALID,96.7437,VALID,-0.0679233,VALID,19.1322,VALID,149,VALID,0.495477,
2003-09-21, 03:32:00,VALID,919.211,VALID,0,VALID,96.7335,VALID,-0.0849042,VALID,19.1257,VALID,149,VALID,0.327902,
2003-09-21, 03:33:00,VALID,919.202,VALID,0,VALID,96.7971,VALID,-0.0849042,VALID,19.146,VALID,150,VALID,0.00564236,
2003-09-21, 03:34:00,VALID,919.213,VALID,0,VALID,96.8009,VALID,-0.0509425,VALID,19.1458,VALID,150,VALID,0.0147804,
2003-09-21, 03:35:00,VALID,919.21,VALID,0,VALID,96.7208,VALID,-0.0509425,VALID,19.1292,VALID,149,VALID,0.028125,
2003-09-21, 03:36:00,VALID,919.219,VALID,0,VALID,96.4194,VALID,-0.0509425,VALID,19.1003,VALID,149,VALID,0.0893842,